[[{"header":{"parameterUnit":"m.s-1","parameterCategory":1,"la1":30.2991,"la2":30.254,"lo1":-89.0895,"lo2":-89.0444,"dy":0.0017,"dx":0.0017,"nx":28,"ny":28,"refTime":"2025-04-01T09:00:00:Z","depth":0,"parameterNumber":2,"parameterNumberName":"U-component_of_WINDS"},"data":[0,0,0,0,0,0,0,0,0,0,0,0,0,0,0,0,0,0,0,0,0,0,0,0,0,0,0,0,0,0,0,0,0,0,0,0,0,0,0,0,0,0,0,0,0,0,0,0,0,0,0,0,0,0,0,0,0,0,-3.6284,-3.6285,0,-3.6409,-3.641,-3.6412,-3.6434,-3.6433,-3.6432,-3.6431,-3.656,-3.6564,-3.6569,0,0,0,0,0,0,0,0,0,0,0,0,0,-3.6066,-3.607,-3.6284,-3.6285,-3.6287,-3.6408,-3.641,-3.6412,-3.6435,-3.6433,-3.6432,-3.6431,-3.6559,-3.6564,-3.6569,0,0,0,0,0,0,0,0,0,0,0,0,0,-3.6173,-3.6071,-3.6283,-3.6313,-3.6317,-3.6408,-3.641,-3.6412,-3.6435,-3.6433,-3.6432,-3.643,-3.6557,-3.6563,-3.657,-3.6641,0,0,-3.659,-3.6593,0,0,0,0,0,0,0,0,-3.6167,-3.6181,-3.6307,-3.6311,-3.6315,-3.6404,-3.6381,-3.6489,-3.6435,-3.639,-3.6431,-3.643,-3.651,-3.652,-3.6547,-3.6647,-3.6653,-3.6591,-3.6595,-3.6597,-3.6599,0,0,0,0,0,0,0,-3.6159,-3.6175,-3.6333,-3.6309,-3.6314,-3.632,-3.6334,-3.6401,-3.6457,-3.6394,-3.6396,-3.641,-3.6512,-3.654,-3.655,-3.6655,-3.659,-3.6596,-3.66,-3.6603,-3.682,-3.6822,0,0,0,0,0,0,-3.6146,-3.6169,-3.6329,-3.6337,-3.6236,-3.6325,-3.634,-3.6377,-3.6456,-3.6467,-3.6411,-3.6411,-3.653,-3.6542,-3.6555,-3.6643,-3.6597,-3.6603,-3.6607,-3.6818,-3.682,-3.6822,0,0,0,0,0,0,-3.6142,-3.6161,-3.6324,-3.6254,-3.6275,-3.6331,-3.6372,-3.6381,-3.6409,-3.647,-3.648,-3.643,-3.6529,-3.6545,-3.6619,-3.6647,-3.6606,-3.6612,-3.6816,-3.6819,-3.6821,-3.6819,0,0,0,0,0,0,-3.6135,-3.6159,-3.6186,-3.6254,-3.6279,-3.6386,-3.6374,-3.6384,-3.6421,-3.6421,-3.649,-3.65,-3.6529,-3.6609,-3.6626,-3.6656,-3.6618,-3.6814,-3.6817,-3.682,-3.6817,-3.6821,-3.6825,0,0,0,0,0,-3.6128,-3.618,-3.6187,-3.6206,-3.6314,-3.6388,-3.6402,-3.6434,-3.6423,-3.6451,-3.649,-3.6498,-3.6642,-3.6617,-3.6636,-3.6668,-3.6812,-3.6816,-3.682,-3.6815,-3.6821,-3.6825,0,0,0,0,0,0,-3.6114,-3.619,-3.6198,-3.6275,-3.6324,-3.6391,-3.6427,-3.6439,-3.6493,-3.6492,-3.653,-3.6545,-3.6617,-3.665,-3.6621,-3.6741,-3.6726,-3.6734,-3.6716,-3.6722,-3.6726,-3.6716,-3.6623,0,0,0,0,0,-3.612,-3.6173,-3.6237,-3.6299,-3.6323,-3.6371,-3.6405,-3.6425,-3.6479,-3.65,-3.6544,-3.6596,-3.6653,-3.669,-3.6746,-3.6823,-3.6838,-3.6854,-3.6858,-3.6862,-3.6867,-3.691,-3.6918,-3.6836,-3.6836,-3.6836,0,0,-3.6133,-3.6181,-3.6212,-3.6297,-3.6338,-3.6393,-3.6389,-3.6447,-3.6488,-3.6509,-3.6581,-3.6616,-3.6676,-3.6752,-3.6787,-3.6782,-3.6894,-3.6867,-3.6869,-3.6873,-3.6915,-3.6923,-3.693,-3.6838,-3.6838,-3.6837,0,0,-3.6183,-3.6225,-3.6281,-3.6322,-3.6385,-3.6416,-3.643,-3.6496,-3.6519,-3.6592,-3.6609,-3.6659,-3.6757,-3.6799,-3.6833,-3.6902,-3.6911,-3.6919,-3.694,-3.6982,-3.6988,-3.6994,-3.7017,-3.7025,-3.6925,-3.6925,-3.6925,0,-3.6191,-3.6274,-3.6308,-3.6365,-3.6402,-3.6424,-3.6481,-3.652,-3.6597,-3.6622,-3.6615,-3.6738,-3.6781,-3.6866,-3.6883,-3.691,-3.6927,-3.691,-3.6984,-3.6991,-3.6997,-3.7019,-3.7028,-3.6926,-3.6925,-3.6925,-3.6925,0,-3.628,-3.6337,-3.6374,-3.6448,-3.649,-3.6546,-3.659,-3.6628,-3.6646,-3.6678,-3.6753,-3.6805,-3.6871,-3.6894,-3.6912,-3.6982,-3.6976,-3.6977,-3.6962,-3.7004,-3.7026,-3.7035,-3.6926,-3.6926,-3.6926,-3.6926,0,0,-3.6323,-3.6416,-3.6429,-3.6463,-3.6534,-3.6579,-3.6638,-3.6702,-3.6734,-3.6788,-3.6837,-3.692,-3.692,-3.6959,-3.6983,-3.7019,-3.7069,-3.7015,-3.7017,-3.7022,-3.7149,-3.7147,-3.7156,-3.7077,-3.7078,-3.708,-3.7143,0,-3.6381,-3.6485,-3.6518,-3.6604,-3.6657,-3.668,-3.6731,-3.678,-3.6813,-3.6863,-3.69,-3.6957,-3.6954,-3.6978,-3.7015,-3.7055,-3.7094,-3.7051,-3.7122,-3.7124,-3.7104,-3.7168,-3.7166,-3.7223,-3.7152,-3.7154,-3.7155,0,-3.6462,-3.6516,-3.6607,-3.6672,-3.6696,-3.674,-3.6803,-3.6851,-3.6908,-3.6929,-3.6973,-3.6994,-3.7056,-3.704,-3.7126,-3.7095,-3.7127,-3.7151,-3.7154,-3.716,-3.714,-3.7174,-3.7243,-3.725,-3.7169,-3.7168,-3.7167,0,-3.6483,-3.6579,-3.6646,-3.6675,-3.6752,-3.6783,-3.6816,-3.6872,-3.6909,-3.6964,-3.6989,-3.7051,-3.7084,-3.7132,-3.7169,-3.7154,-3.7251,-3.7238,-3.727,-3.7269,-3.7288,-3.7286,-3.736,-3.7311,-3.7311,-3.7311,-3.7311,0,-3.6543,-3.6598,-3.6656,-3.6697,-3.6759,-3.6798,-3.6859,-3.6894,-3.6943,-3.6992,-3.7016,-3.7062,-3.7109,-3.716,-3.719,-3.7256,-3.7272,-3.7291,-3.7297,-3.7287,-3.7285,-3.7307,-3.7303,-3.7314,-3.7313,-3.7313,-3.7312,0,-3.6576,-3.6617,-3.6692,-3.6759,-3.6777,-3.682,-3.6878,-3.6919,-3.6953,-3.7014,-3.7031,-3.7085,-3.7147,-3.7189,-3.7269,-3.7289,-3.7361,-3.7368,-3.7341,-3.7344,-3.7373,-3.7369,-3.7463,-3.7477,-3.742,-3.742,-3.7421,0,-3.661,-3.6653,-3.6725,-3.6759,-3.6792,-3.6847,-3.6885,-3.6925,-3.6964,-3.7032,-3.7065,-3.7129,-3.7182,-3.728,-3.7327,-3.7388,-3.7396,-3.7425,-3.7405,-3.7393,-3.7394,-3.7391,-3.7395,-3.7427,-3.7427,-3.7427,-3.7428,0,-3.6667,-3.6686,-3.6739,-3.68,-3.6844,-3.6894,-3.6945,-3.6971,-3.702,-3.7063,-3.7126,-3.7167,-3.7249,-3.7312,-3.7378,-3.7413,-3.7429,-3.7434,-3.7444,-3.7433,-3.7415,-3.7424,-3.7347,-3.7431,-3.7431,-3.743,-3.743,-3.743,-3.6701,-3.674,-3.6796,-3.6855,-3.6897,-3.6943,-3.6985,-3.7025,-3.7078,-3.7147,-3.7168,-3.7234,-3.7291,-3.7381,-3.7418,-3.747,-3.7468,-3.7483,-3.7486,-3.7489,-3.7488,-3.7408,-3.7483,-3.7482,-3.7482,-3.7482,-3.7482,0,-3.6758,-3.6795,-3.6849,-3.6918,-3.6965,-3.6976,-3.7032,-3.707,-3.7128,-3.7179,-3.7231,-3.7304,-3.7365,-3.7417,-3.7481,-3.7513,-3.7521,-3.7528,-3.7525,-3.7533,-3.7487,-3.7471,-3.752,-3.752,-3.752,-3.752,-3.752,-3.752,-3.6792,-3.6858,-3.6884,-3.6971,-3.7008,-3.7072,-3.7104,-3.7147,-3.7188,-3.7268,-3.7319,-3.7353,-3.7404,-3.7472,-3.7529,-3.7543,-3.7565,-3.7569,-3.7584,-3.754,-3.7536,-3.7532,-3.7517,-3.7574,-3.7574,-3.7625,-3.7625,-3.7626]},{"header":{"parameterUnit":"m.s-1","parameterCategory":1,"la1":30.2991,"la2":30.254,"lo1":-89.0895,"lo2":-89.0444,"dy":0.0017,"dx":0.0017,"nx":28,"ny":28,"refTime":"2025-04-01T09:00:00:Z","depth":0,"parameterNumber":3,"parameterNumberName":"V-component_of_WINDS"},"data":[0,0,0,0,0,0,0,0,0,0,0,0,0,0,0,0,0,0,0,0,0,0,0,0,0,0,0,0,0,0,0,0,0,0,0,0,0,0,0,0,0,0,0,0,0,0,0,0,0,0,0,0,0,0,0,0,0,0,5.7446,5.7446,0,5.7425,5.7424,5.7424,5.7359,5.7358,5.7357,5.7355,5.7335,5.7336,5.7337,0,0,0,0,0,0,0,0,0,0,0,0,0,5.7433,5.7433,5.7446,5.7446,5.7445,5.7425,5.7424,5.7424,5.736,5.7358,5.7356,5.7355,5.7335,5.7336,5.7337,0,0,0,0,0,0,0,0,0,0,0,0,0,5.7428,5.7433,5.7446,5.7411,5.7407,5.7425,5.7424,5.7424,5.736,5.7358,5.7356,5.7354,5.7335,5.7336,5.7337,5.7388,0,0,5.7341,5.7341,0,0,0,0,0,0,0,0,5.7428,5.7428,5.7416,5.7413,5.7409,5.7392,5.7412,5.7412,5.7361,5.7378,5.7355,5.7353,5.7356,5.7355,5.7356,5.7387,5.7386,5.7341,5.7342,5.7342,5.7342,0,0,0,0,0,0,0,5.7428,5.7429,5.7437,5.7416,5.7412,5.7397,5.7393,5.7412,5.738,5.7376,5.7372,5.737,5.7354,5.7355,5.7355,5.7385,5.7341,5.7342,5.7343,5.7343,5.7457,5.746,0,0,0,0,0,0,5.7434,5.743,5.7438,5.7437,5.7414,5.7399,5.7395,5.74,5.7379,5.7374,5.7372,5.7367,5.7354,5.7354,5.7354,5.7413,5.7342,5.7343,5.7344,5.7455,5.7458,5.746,0,0,0,0,0,0,5.7434,5.7435,5.7439,5.7432,5.7431,5.7401,5.7407,5.7401,5.7402,5.7376,5.737,5.7379,5.7353,5.7353,5.738,5.7411,5.7344,5.7345,5.7452,5.7456,5.7459,5.753,0,0,0,0,0,0,5.7433,5.7435,5.7454,5.7433,5.7432,5.7465,5.7409,5.7402,5.7404,5.7398,5.7381,5.7376,5.7351,5.7379,5.7381,5.7412,5.7346,5.745,5.7454,5.7458,5.7525,5.7536,5.7545,0,0,0,0,0,5.7433,5.7475,5.7455,5.7456,5.7454,5.7466,5.7466,5.7436,5.7407,5.7425,5.7409,5.7376,5.7407,5.7382,5.7384,5.7416,5.7447,5.7453,5.7458,5.752,5.7533,5.7545,0,0,0,0,0,0,5.75,5.7471,5.7449,5.7485,5.7479,5.7455,5.7478,5.745,5.7453,5.7447,5.741,5.7406,5.7439,5.743,5.7402,5.7464,5.7422,5.7428,5.7469,5.7481,5.7491,5.7493,5.7347,0,0,0,0,0,5.7519,5.7531,5.7505,5.7539,5.7537,5.7508,5.7513,5.749,5.7482,5.7479,5.7464,5.7459,5.7467,5.7473,5.748,5.7523,5.7519,5.7546,5.7556,5.7564,5.757,5.7594,5.7606,5.7478,5.7478,5.7477,0,0,5.7559,5.7544,5.7554,5.7552,5.7545,5.7559,5.7507,5.7523,5.7534,5.7482,5.7507,5.7496,5.7487,5.7523,5.7538,5.7516,5.7605,5.7571,5.7578,5.7579,5.76,5.7612,5.7623,5.7481,5.748,5.748,0,0,5.7637,5.7627,5.7655,5.7649,5.7638,5.7618,5.7625,5.7606,5.7597,5.7621,5.7583,5.7595,5.761,5.7606,5.7606,5.7684,5.7655,5.7687,5.774,5.7763,5.7773,5.7782,5.7811,5.7821,5.7693,5.7693,5.7693,0,5.7688,5.7707,5.7673,5.7692,5.7693,5.7647,5.7675,5.7671,5.7663,5.7665,5.7641,5.766,5.765,5.7685,5.7704,5.7705,5.7713,5.7689,5.7774,5.7782,5.779,5.7817,5.7828,5.7697,5.7697,5.7696,5.7696,0,5.777,5.7784,5.7807,5.7801,5.7804,5.7828,5.7799,5.7807,5.7784,5.7768,5.7794,5.7781,5.7784,5.7791,5.7769,5.7823,5.781,5.778,5.7738,5.7807,5.7832,5.7842,5.7703,5.7702,5.77,5.7699,0,0,5.7891,5.7865,5.7875,5.7872,5.7856,5.7867,5.7889,5.7892,5.79,5.7896,5.7915,5.7929,5.7902,5.7902,5.7879,5.7899,5.7963,5.7867,5.7866,5.7886,5.8024,5.8047,5.8059,5.7944,5.7946,5.7947,5.8025,0,5.7966,5.8002,5.7973,5.8015,5.8028,5.7984,5.8004,5.7997,5.7983,5.7992,5.7976,5.7987,5.795,5.7949,5.7968,5.7952,5.7991,5.7946,5.7962,5.7963,5.7966,5.8072,5.8096,5.817,5.8034,5.8036,5.8037,0,5.8059,5.806,5.8103,5.8086,5.809,5.8108,5.8109,5.8118,5.811,5.8098,5.8099,5.807,5.8092,5.805,5.808,5.805,5.8055,5.8048,5.805,5.8051,5.8005,5.8077,5.8193,5.8204,5.8052,5.8051,5.8049,0,5.8145,5.8156,5.8183,5.8182,5.8162,5.8176,5.8169,5.8159,5.8163,5.8164,5.8166,5.8169,5.8172,5.8176,5.815,5.8121,5.8183,5.8139,5.8175,5.8176,5.8191,5.819,5.831,5.8193,5.8192,5.8192,5.8192,0,5.8233,5.8261,5.8221,5.8239,5.8269,5.8236,5.8267,5.8256,5.8247,5.8262,5.8224,5.8239,5.8203,5.8214,5.8194,5.8223,5.8224,5.8216,5.821,5.822,5.8221,5.8223,5.8218,5.8195,5.8194,5.8194,5.8193,0,5.8333,5.8308,5.8335,5.8315,5.831,5.8334,5.8317,5.8332,5.8315,5.8334,5.8337,5.831,5.8322,5.8296,5.8303,5.829,5.8331,5.8317,5.8334,5.833,5.8368,5.8366,5.8494,5.851,5.8382,5.8383,5.8384,0,5.8392,5.8413,5.8394,5.8401,5.8396,5.8408,5.8411,5.8379,5.8385,5.8378,5.8394,5.8403,5.8407,5.8428,5.841,5.8416,5.8402,5.8447,5.8403,5.8412,5.8405,5.8404,5.8407,5.8457,5.8458,5.8459,5.846,0,5.8499,5.8485,5.8492,5.8495,5.85,5.8501,5.8499,5.8507,5.8472,5.8481,5.8492,5.8496,5.8504,5.8513,5.8515,5.8508,5.8479,5.8474,5.8483,5.8494,5.8503,5.85,5.836,5.8472,5.8471,5.847,5.8469,5.8469,5.8581,5.8598,5.8588,5.8597,5.8592,5.8591,5.8605,5.8589,5.8598,5.8602,5.8582,5.8598,5.859,5.859,5.8586,5.8598,5.8578,5.8591,5.8594,5.8598,5.8605,5.85,5.8598,5.8598,5.8598,5.8597,5.8597,0,5.8687,5.8679,5.8687,5.8686,5.8693,5.8664,5.8661,5.8669,5.8683,5.8678,5.8684,5.8697,5.8706,5.8688,5.8694,5.8708,5.8695,5.8711,5.871,5.8709,5.8622,5.8614,5.8721,5.8721,5.8721,5.8721,5.8721,5.8721,5.8744,5.8771,5.8757,5.8782,5.8772,5.8787,5.8788,5.8787,5.8783,5.8799,5.8806,5.8795,5.8785,5.879,5.8797,5.8792,5.8797,5.8818,5.8808,5.8727,5.8715,5.8704,5.8696,5.8818,5.8819,5.8894,5.8895,5.8895]}]]